THOR BURNER 2 R/B, 2877

Orbit data source: Space-Track

THOR BURNER 2 R/B, 2877 is space debris in LEO originally from a launch on Thu, 29 Jun 1967 UTC launched from the Air Force Western Test Range (AFWTR). Debris objects in space refer to the collection of defunct objects orbiting the Earth. Examples of debris include non-operational satellites, rocket bodies, and fragments generated from explosions, collisions, or faulty payload assembly.

Loading next visibility...
Identifier
2877, 1967-065C
Orbit
LEO
Country
Flag of USUS
Related business
Manufacturer
BOKT/THKE
Mission
Spacecraft
Bus & Motor
STAR 13, STAR 13
Mass
58 kg wet, 25 kg dry
Launch date (UTC)
1967-06-29 (59 years ago)
Launch vehicle
Unknown
Launch site
Air Force Western Test Range (AFWTR)
Object type
Payload
Rocket body
Debris
Shape & HBR
Unknown
Radar Cross Section
Medium (>0.1 m² and <1 m²)

Expand to show TLE details & history
Last TLE update: 1 day ago

TLE from 1 day ago
0 THOR BURNER 2 R/B
1  2877U 67065C   26034.17227169 -.00000003  00000-0 -30304-2 0  9995
2  2877  89.9945 313.7018 0064539 222.4029 137.1808  8.36608364789771
Epoch: 2026-02-03T04:08Z
TLE epoch observation values (Epoch: 2026-02-03T04:08:04.274Z)
Latitude
-0.00002°
Longitude
118.32697°
Altitude
3,922.651 km
Speed
6.206 km/s
True Right ascension
20h 54m 48s
True Declination
0° 00' 00"
Sunlit
Object was in daylight at epoch
Visualization orbit readout
Latitude
Unknown
Longitude
Unknown
Altitude
Unknown
Speed
Unknown
Apparent Right ascension
Unknown
Apparent Declination
Unknown
Sunlit
N/A
Visualization observer readout
Local Sidereal Time
13:49:14
Azimuth
Unknown
Elevation
Unknown
Doppler factor
Unknown
Orbital elements
Apogee altitude
3,935.777 km
Perigee altitude
3,803.501 km
Semi-major axis
10,247.776 km
Eccentricity
0.00645
Inclination
89.9945°
RAAN
313.7018°
Arg. of periapsis
222.4029°
True anomaly
137.68051°
Mean anomaly
137.1808°
Eccentric anomaly
137.43095°
Mean motion
2.09218 °/min
Orbital period
172.07 mins
BSTAR
-0.0030304
Loading maneuver chart data...
Computing Atmospheric mass density...
Loading historical data...
Loading historical data...
Loading historical data...
Loading historical data...
Loading historical data...
Loading historical data...
Loading historical data...
Other satellites on launch #65 in the year 1967 (1967-06-29 UTC)

Documentation

Showing up to 5 results
|